Date String (YYYY-MM-DD hh:mm:ss) UTC,Instrument flags,Ambient pressure (hPa),Sample flow (lpm),Bypass flow (lpm),Sample temperature (°C),Ambient temperature (°C),ASC tube jacket temperature (°C),LED temperature (°C),Box temperature (°C),Sample RH (%),Span deviation,Mass concentration (μg/m³),Mass concentration (μg/m³),Mass concentration (μg/m³)
DateTimeUTC,F1_M11,P_M11,Q1_M11,Q2_M11,T1_M11,T2_M11,T3_M11,T4_M11,T5_M11,U1_M11,ZSPAN_M11,X0_M11,X2_M11,X1_M11
2022-10-27 05:00:00,,0819.1,5.00,0.00,27.3,25.7,00.0,36.1,29.2,12.5,0000.0,0019.41,0006.08,0004.71
2022-10-27 05:01:00,,0819.1,5.00,0.00,27.3,25.7,00.0,36.1,29.2,12.5,0000.0,0020.79,0006.10,0004.71
2022-10-27 05:02:00,,0819.1,5.00,0.00,27.3,25.7,00.0,36.1,29.2,12.5,0000.0,0021.83,0006.09,0004.71
2022-10-27 05:03:00,,0819.2,5.00,0.00,27.3,25.7,00.0,36.1,29.1,12.5,0000.0,0022.11,0006.12,0004.71
2022-10-27 05:04:00,,0819.2,5.00,0.00,27.3,25.6,00.0,36.1,29.1,12.4,0000.0,0022.45,0006.11,0004.70
2022-10-27 05:05:00,,0819.2,5.00,0.00,27.3,25.6,00.0,36.1,29.1,12.3,0000.0,0023.24,0006.03,0004.68
2022-10-27 05:06:00,,0819.1,5.00,0.00,27.3,25.6,00.0,36.1,29.1,12.3,0000.0,0022.90,0005.96,0004.65
2022-10-27 05:07:00,,0819.2,5.01,0.00,27.2,25.6,00.0,36.1,29.0,12.3,0000.0,0022.67,0005.87,0004.63
2022-10-27 05:08:00,,0819.1,5.00,0.00,27.2,25.5,00.0,36.1,29.0,12.3,0000.0,0021.16,0005.83,0004.62
2022-10-27 05:09:00,,0819.1,4.99,0.00,27.2,25.5,00.0,36.1,29.1,12.3,0000.0,0020.52,0005.80,0004.61
2022-10-27 05:10:00,,0819.1,5.00,0.00,27.2,25.5,00.0,36.1,29.1,12.2,0000.0,0021.31,0005.74,0004.58
2022-10-27 05:11:00,,0819.1,5.01,0.00,27.2,25.5,00.0,36.1,29.0,12.3,0000.0,0019.93,0005.69,0004.55
2022-10-27 05:12:00,,0819.1,4.99,0.00,27.2,25.5,00.0,36.1,29.1,12.4,0000.0,0019.12,0005.71,0004.54
2022-10-27 05:13:00,,0819.1,4.99,0.00,27.2,25.5,00.0,36.1,29.0,12.4,0000.0,0017.62,0005.73,0004.53
2022-10-27 05:14:00,,0819.1,4.99,0.00,27.2,25.5,00.0,36.1,29.0,12.4,0000.0,0017.45,0005.69,0004.52
2022-10-27 05:15:00,,0819.1,4.99,0.00,27.2,25.5,00.0,36.1,29.0,12.5,0000.0,0017.94,0005.68,0004.52
2022-10-27 05:16:00,,0819.1,5.00,0.00,27.2,25.5,00.0,36.1,29.1,12.5,0000.0,0018.75,0005.70,0004.53
2022-10-27 05:17:00,,0819.1,4.99,0.00,27.2,25.5,00.0,36.0,29.1,12.5,0000.0,0019.17,0005.73,0004.55
2022-10-27 05:18:00,,0819.1,5.00,0.00,27.2,25.6,00.0,36.1,29.1,12.5,0000.0,0018.89,0005.72,0004.55
2022-10-27 05:19:00,,0819.0,5.02,0.00,27.2,25.6,00.0,36.0,29.1,12.5,0000.0,0019.05,0005.73,0004.54
2022-10-27 05:20:00,,0819.1,5.00,0.00,27.2,25.6,00.0,36.0,29.1,12.5,0000.0,0020.03,0005.73,0004.55
2022-10-27 05:21:00,,0819.1,5.00,0.00,27.2,25.6,00.0,36.0,29.1,12.5,0000.0,0020.79,0005.76,0004.56
2022-10-27 05:22:00,,0819.1,4.99,0.00,27.2,25.6,00.0,36.0,29.1,12.5,0000.0,0021.36,0005.80,0004.57
2022-10-27 05:23:00,,0819.1,4.99,0.00,27.2,25.6,00.0,36.0,29.1,12.6,0000.0,0021.10,0005.74,0004.56
2022-10-27 05:24:00,,0819.1,4.99,0.00,27.2,25.6,00.0,36.0,29.1,12.5,0000.0,0020.78,0005.70,0004.53
2022-10-27 05:25:00,,0819.1,5.02,0.00,27.2,25.6,00.0,36.0,29.1,12.6,0000.0,0020.18,0005.63,0004.50
2022-10-27 05:26:00,,0819.1,5.00,0.00,27.2,25.6,00.0,36.0,29.1,12.6,0000.0,0019.42,0005.58,0004.46
2022-10-27 05:27:00,,0819.1,5.00,0.00,27.2,25.6,00.0,36.0,29.1,12.6,0000.0,0017.94,0005.59,0004.45
2022-10-27 05:28:00,,0819.1,4.99,0.00,27.2,25.6,00.0,36.0,29.0,12.5,0000.0,0017.37,0005.62,0004.43
2022-10-27 05:29:00,,0819.1,4.99,0.00,27.2,25.6,00.0,36.0,29.0,12.5,0000.0,0017.08,0005.65,0004.43
2022-10-27 05:30:00,,0819.1,4.99,0.00,27.2,25.6,00.0,36.0,29.0,12.5,0000.0,0017.25,0005.68,0004.44
2022-10-27 05:31:00,,0819.1,5.02,0.00,27.2,25.6,00.0,36.0,29.0,12.5,0000.0,0016.73,0005.70,0004.44
2022-10-27 05:32:00,,0819.1,5.00,0.00,27.2,25.6,00.0,36.0,29.1,12.5,0000.0,0015.01,0005.69,0004.44
2022-10-27 05:33:00,,0819.1,5.00,0.00,27.2,25.6,00.0,36.0,29.1,12.5,0000.0,0014.12,0005.71,0004.45
2022-10-27 05:34:00,,0819.1,5.00,0.00,27.2,25.6,00.0,36.0,29.1,12.5,0000.0,0014.41,0005.71,0004.46
2022-10-27 05:35:00,,0819.1,4.99,0.00,27.2,25.6,00.0,36.0,29.1,12.5,0000.0,0014.68,0005.69,0004.46
2022-10-27 05:36:00,,0819.1,4.99,0.00,27.2,25.6,00.0,36.0,29.1,12.5,0000.0,0014.83,0005.77,0004.47
2022-10-27 05:37:00,,0819.1,4.99,0.00,27.2,25.6,00.0,36.0,29.1,12.6,0000.0,0015.25,0005.75,0004.47
2022-10-27 05:38:00,,0819.1,5.02,0.00,27.2,25.6,00.0,36.0,29.1,12.7,0000.0,0015.85,0005.73,0004.45
2022-10-27 05:39:00,,0819.1,5.00,0.00,27.2,25.6,00.0,36.0,29.0,12.7,0000.0,0016.07,0005.70,0004.42
2022-10-27 05:40:00,,0819.0,5.00,0.00,27.2,25.6,00.0,36.0,29.1,12.8,0000.0,0016.23,0005.65,0004.37
2022-10-27 05:41:00,,0819.0,5.00,0.00,27.2,25.6,00.0,36.0,29.1,12.7,0000.0,0016.37,0005.54,0004.31
2022-10-27 05:42:00,,0819.0,5.00,0.00,27.2,25.6,00.0,36.0,29.1,12.8,0000.0,0015.53,0005.46,0004.26
2022-10-27 05:43:00,,0819.0,4.99,0.00,27.2,25.6,00.0,36.0,29.1,12.8,0000.0,0015.53,0005.42,0004.21
2022-10-27 05:44:00,,0819.0,5.02,0.00,27.2,25.7,00.0,36.0,29.2,12.9,0000.0,0015.51,0005.31,0004.14
2022-10-27 05:45:00,,0819.0,5.00,0.00,27.2,25.7,00.0,36.1,29.1,12.9,0000.0,0015.19,0005.24,0004.07
2022-10-27 05:46:00,,0819.0,5.00,0.00,27.2,25.7,00.0,36.1,29.1,12.9,0000.0,0016.02,0005.18,0004.01
2022-10-27 05:47:00,,0819.0,5.00,0.00,27.3,25.7,00.0,36.1,29.2,12.9,0000.0,0016.75,0005.05,0003.94
2022-10-27 05:48:00,,0819.1,5.00,0.00,27.3,25.7,00.0,36.1,29.2,12.9,0000.0,0016.01,0005.04,0003.89
2022-10-27 05:49:00,,0819.1,5.00,0.00,27.3,25.7,00.0,36.1,29.2,12.9,0000.0,0015.59,0005.00,0003.86
2022-10-27 05:50:00,,0819.1,5.00,0.00,27.3,25.7,00.0,36.1,29.2,12.8,0000.0,0015.77,0004.97,0003.85
2022-10-27 05:51:00,,0819.1,5.01,0.00,27.3,25.6,00.0,36.1,29.1,12.8,0000.0,0015.69,0004.98,0003.85
2022-10-27 05:52:00,,0819.1,5.01,0.00,27.3,25.6,00.0,36.1,29.2,12.9,0000.0,0016.01,0004.97,0003.82
2022-10-27 05:53:00,,0819.1,4.99,0.00,27.3,25.6,00.0,36.1,29.2,12.9,0000.0,0016.22,0004.97,0003.81
2022-10-27 05:54:00,,0819.1,5.00,0.00,27.2,25.6,00.0,36.1,29.1,12.8,0000.0,0016.47,0004.97,0003.80
2022-10-27 05:55:00,,0819.1,4.99,0.00,27.3,25.6,00.0,36.1,29.2,12.9,0000.0,0017.48,0004.95,0003.80
2022-10-27 05:56:00,,0819.1,5.00,0.00,27.3,25.6,00.0,36.1,29.2,12.8,0000.0,0017.68,0004.90,0003.81
2022-10-27 05:57:00,,0819.1,5.00,0.00,27.2,25.6,00.0,36.1,29.2,12.8,0000.0,0017.05,0004.94,0003.84
2022-10-27 05:58:00,,0819.1,5.00,0.00,27.2,25.6,00.0,36.1,29.1,12.8,0000.0,0015.64,0004.98,0003.86
2022-10-27 05:59:00,,0819.1,5.02,0.00,27.2,25.6,00.0,36.1,29.1,12.9,0000.0,0015.98,0004.98,0003.86
